This is the latest recevied weather packets stored in our database for station/object NR6G-5. If no packets are shown the sender has not sent any weather packets the latest 10 day(s).
| Time | Temp. | Humidity | Pressure | Rain* | Wind** | Luminosity | Snow |
|---|---|---|---|---|---|---|---|
| 1777673914 | 31.11° C | 32% | 1009.2 hPa | 0 mm | - | - | - |
| 1777673614 | 31.11° C | 32% | 1009.2 hPa | 0 mm | - | - | - |
| 1777673314 | 31.11° C | 32% | 1009.4 hPa | 0 mm | - | - | - |
| 1777673013 | 31.11° C | 33% | 1009.5 hPa | 0 mm | - | - | - |
| 1777672716 | 30.56° C | 32% | 1009.5 hPa | 0 mm | - | - | - |
| 1777672413 | 30.56° C | 31% | 1009.7 hPa | 0 mm | - | - | - |
| 1777672113 | 30.56° C | 32% | 1009.7 hPa | 0 mm | - | - | - |
| 1777671813 | 30.56° C | 32% | 1009.8 hPa | 0 mm | - | - | - |
| 1777671213 | 30° C | 35% | 1009.9 hPa | 0 mm | - | - | - |
| 1777670913 | 30° C | 34% | 1010 hPa | 0 mm | - | - | - |
| 1777670613 | 30° C | 35% | 1010 hPa | 0 mm | - | - | - |
| 1777670314 | 30° C | 31% | 1010.2 hPa | 0 mm | - | - | - |
| 1777670013 | 30.56° C | 32% | 1010.2 hPa | 0 mm | - | - | - |
| 1777669713 | 30° C | 33% | 1010.2 hPa | 0 mm | - | - | - |
| 1777669415 | 30° C | 33% | 1010.3 hPa | 0 mm | - | - | - |
| 1777669115 | 30° C | 32% | 1010.4 hPa | 0 mm | - | - | - |
| 1777668814 | 30° C | 33% | 1010.4 hPa | 0 mm | - | - | - |
| 1777668515 | 29.44° C | 33% | 1010.5 hPa | 0 mm | - | - | - |
| 1777668214 | 29.44° C | 34% | 1010.5 hPa | 0 mm | - | - | - |
| 1777667924 | 28.89° C | 35% | 1010.6 hPa | 0 mm | - | - | - |
| 1777667614 | 28.89° C | 35% | 1010.6 hPa | 0 mm | - | - | - |
| 1777666716 | 28.89° C | 36% | 1010.9 hPa | 0 mm | - | - | - |
| 1777666414 | 28.89° C | 36% | 1010.9 hPa | 0 mm | - | - | - |
| 1777666114 | 28.33° C | 38% | 1011 hPa | 0 mm | - | - | - |
| 1777665813 | 28.33° C | 37% | 1011.1 hPa | 0 mm | - | - | - |
* Rain latest hour (hover to see other rain measurements)
** Current wind speed in m/s (hover to see current wind gust speed)